User: anonymous   Login
Location: Isle of Man Observatory
(54.1776°N, 4.6264°W)
Time: 18:56:20
(UTC+02:00)
Language:

Hubble Space Telescope - Orbit

View from above orbital plane
View from above orbital plane
View from above satellite
View from above satellite

Ground track
Ground track

The orbit data is extracted from the following two-line orbital elements,

1 20580U 90037B   24148.93140153  .00004489  00000-0  20855-3 0  9997
2 20580  28.4672 120.8152 0002669 172.4313 187.6320 15.17487355673952
Epoch (UTC): 27 May 2024 22:21:13
Eccentricity: 0.0002669
inclination: 28.4672°
perigee height: 511 km
apogee height: 515 km
right ascension of ascending node: 120.8152°
argument of perigee: 172.4313°
revolutions per day: 15.17487355
mean anomaly at epoch: 187.6320°
orbit number at epoch: 67395

The dashed part of the orbit path shows where the satellite is in the earth's shadow,  

DLR